Location: Unspecified
(48.7670°N, 0.0000°E)
Time: 04:23:47
(UTC+00:00)

Courier 1B - Pass Details

Date: 23 June 2019
Orbit: 963 x 1209 km, 28.3° (Epoch: 18 July)

Event Time Altitude Azimuth Distance (km) Brightness Sun altitude
Rises 19:27:37 0° 230° (SW) 3,869 10.9 4.5°
Reaches altitude 10° 19:31:48 10° 207° (SSW) 2,968 10.0 3.9°
Maximum altitude 19:35:25 14° 177° (S) 2,693 9.5 3.4°
Drops below altitude 10° 19:39:08 10° 147° (SSE) 3,055 9.5 2.9°
Sets 19:43:33 0° 125° (SE) 4,059 10.0 2.3°
